{"data":{"norad_id":48439,"epoch":"2026-05-25T03:02:50.267616Z","epoch_age_seconds":60494,"freshness":"FRESH","line1":"1 48439U 21040M   26145.12697069 -.00000961  00000+0 -19216-4 0  9993","line2":"2 48439  53.1584 182.8763 0001226  89.0327 271.0815 15.31702351278381","mean_motion":15.31702351,"eccentricity":0.0001226,"inclination_deg":53.1584,"raan_deg":182.8763,"arg_perigee_deg":89.0327,"mean_anomaly_deg":271.0815,"bstar":-1.9216e-5,"rev_number":27838,"period_min":94.013043660857,"perigee_km":469.89331556554,"apogee_km":471.57265848636,"semimajor_km":6848.8699870259,"source":"CELESTRAK","updated_at":"2026-05-25T13:38:16.715726Z"}}